This demonstration page uses our WeatherBlox Daily Observations layout. Learn more.

39.01783, -85.05884

Hourly Observations for June 8, 2019

Temp ( °F °C ) Dew Point ( °F °C ) Humidity (%) Winds ( mph kmh ) Pressure ( in mb ) Visibility ( mi km ) Precip ( " mm )
12:52 am 00:52 Cloudy 73 22.8 60 15.6 64 64 ENE 16 26 29.83 1010 10 16.09344 0 0
1:52 am 01:52 Cloudy 72 22.2 60 15.6 66 66 ENE 16 26 29.83 1010 10 16.09344 0 0
2:52 am 02:52 Cloudy 72 22.2 60 15.6 66 66 ENE 16 26 29.8 1009 10 16.09344 0 0
3:52 am 03:52 Cloudy 71 21.7 61 16.1 71 71 ENE 16 26 29.83 1010 10 16.09344 0 0
4:52 am 04:52 Cloudy 71 21.7 61 16.1 71 71 E 13 20 29.83 1010 10 16.09344 0 0
5:52 am 05:52 Cloudy 71 21.7 62 16.7 73 73 E 13 20 29.83 1010 10 16.09344 0 0
6:52 am 06:52 Cloudy 71 21.7 63 17.2 76 76 E 10 17 29.85 1011 10 16.09344 0 0
7:40 am 07:40 Cloudy with Light Rain 69 20.6 65 18.3 87 87 E 8 13 29.88 1012 7 11.265408 0.01 0.254
7:52 am 07:52 Cloudy 69 20.6 65 18.3 87 87 E 10 17 29.85 1011 9 14.484096 0.01 0.254
8:52 am 08:52 Cloudy with Light Rain 69 20.6 65 18.3 87 87 E 14 22 29.85 1011 9 14.484096 0.01 0.254
9:52 am 09:52 Cloudy 70 21.1 65 18.3 84 84 E 13 20 29.85 1011 10 16.09344 0.001 0.001
10:52 am 10:52 Cloudy 72 22.2 64 17.8 76 76 E 13 20 29.85 1011 10 16.09344 0.001 0.001
12:52 pm 12:52 Cloudy 74 23.3 65 18.3 74 74 E 14 22 29.88 1012 10 16.09344 0 0
1:52 pm 13:52 Cloudy 75 23.9 65 18.3 71 71 E 17 28 29.88 1012 10 16.09344 0 0
2:52 pm 14:52 Cloudy 73 22.8 64 17.8 74 74 E 16 26 29.88 1012 10 16.09344 0 0
3:52 pm 15:52 Cloudy with Light Rain 72 22.2 66 18.9 82 82 E 15 24 29.85 1011 10 16.09344 0.001 0.001
4:52 pm 16:52 Cloudy 73 22.8 65 18.3 76 76 E 17 28 29.85 1011 10 16.09344 0.001 0.001
5:52 pm 17:52 Cloudy 73 22.8 65 18.3 76 76 E 18 30 29.85 1011 10 16.09344 0 0
6:52 pm 18:52 Cloudy 72 22.2 65 18.3 79 79 ENE 13 20 29.85 1011 10 16.09344 0 0
7:52 pm 19:52 Cloudy 72 22.2 65 18.3 79 79 ENE 14 22 29.85 1011 10 16.09344 0 0
8:52 pm 20:52 Cloudy 72 22.2 64 17.8 76 76 E 15 24 29.85 1011 10 16.09344 0 0
9:17 pm 21:17 Cloudy 72 22.2 64 17.8 76 76 E 15 24 29.88 1012 10 16.09344 0 0
9:52 pm 21:52 Cloudy 72 22.2 64 17.8 76 76 E 16 26 29.85 1011 10 16.09344 0 0
10:52 pm 22:52 Mostly Cloudy 71 21.7 64 17.8 79 79 E 14 22 29.88 1012 10 16.09344 0.001 0.001
11:52 pm 23:52 Cloudy 70 21.1 64 17.8 82 82 E 14 22 29.88 1012 10 16.09344 0.001 0.001

Powered by AerisWeather